Location: Cahas Mountain Overlook
(37.0833°N, 80.1000°W)
Time: 06:25:29
(UTC-05:00)

Vanguard 2 Rocket - Pass Details

Date: 16 February 2026
Orbit: 553 x 3287 km, 32.9° (Epoch: 5 March)

Event Time Altitude Azimuth Distance (km) Brightness Sun altitude
Rises 19:26:41 0° 278° (W) 5,024 12.3 -17.6°
Reaches altitude 10° 19:31:33 10° 264° (W) 3,482 11.1 -18.6°
Maximum altitude 19:37:11 20° 221° (SW) 2,190 9.3 -19.7°
Drops below altitude 10° 19:41:16 10° 175° (S) 2,408 9.0 -20.5°
Enters shadow 19:43:00 - 162° (SSE) 2,823 9.2 -20.8°
